Flag for Germany Weather past 2 weeks in Saarbrücken, Saarland, Germany

Now
36 °F

Drizzle. Low clouds.


Feels Like: 26 °F
Forecast: 29 / 34 °F
Wind: 15 mph from Southwest

Location: Saarbruecken / Ensheim

Current Time: Jan 29, 2015 at 2:30:17 PM

Latest Report: Jan 29, 2015 at 1:50 PM


Visibility: 5 mi

Pressure: 29.21 "Hg

Humidity: 100%

Dew point: 36 °F

Location of SaarbrückenLocation

Historic Weather in Saarbrücken — Graph

°F

Saarbrücken temperature yesterday

Maximum temperature yesterday: 39 °F (at 8:20 PM)
Minimum temperature yesterday: 34 °F (at 12:20 AM)
Average temperature yesterday: 35 °F

Past Weeks' High & Low Weather Summary

 TemperatureHumidityPressure
High50 °F (Jan 15, 4:50 PM)100% (Jan 16, 10:50 AM)30.42 "Hg (Jan 16, 10:50 AM)
Low23 °F (Jan 25, 3:50 AM)62% (Jan 15, 4:50 PM)29.24 "Hg (Jan 29, 1:20 PM)
Average33 °F93%29.97 "Hg
* Reported Jan 14 1:20 PM — Jan 29 1:20 PM, Saarbrücken, Weather by CustomWeather, © 2014

Note: Actual official high and low records may vary slightly from our data, if they occured in-between our weather recording intervals... More about our weather records

Advertising

Saarbrücken weather history for previous 24 hours

 ConditionsComfort  
Time TempWeatherWind HumidityBarometerVisibility
1:20 PM
Jan 29
36 °FLight rain. Low clouds.13 mph93%29.24 "Hg4 mi
12:50 PM36 °FLight snow. Fog.17 mph93%29.27 "Hg3 mi
12:20 PM36 °FLight snow. Low clouds.14 mph93%29.30 "Hg4 mi
11:50 AM34 °FSnow. Fog.9 mph93%29.33 "Hg2 mi
11:20 AM34 °FLight snow. Fog.13 mph93%29.33 "Hg2 mi
10:50 AM34 °FLight snow. Mostly cloudy.16 mph100%29.36 "HgN/A
10:20 AM34 °FLight snow. Mostly cloudy.20 mph93%29.39 "Hg4 mi
9:50 AM34 °FLight snow. Mostly cloudy.17 mph93%29.39 "Hg4 mi
9:20 AM34 °FMostly cloudy.16 mph93%29.42 "HgN/A
8:50 AM34 °FLight snow. Mostly cloudy.15 mph93%29.42 "Hg3 mi
8:20 AM34 °FLight snow. Mostly cloudy.12 mph93%29.45 "HgN/A
7:50 AM34 °FMostly cloudy.14 mph93%29.45 "HgN/A
7:20 AM34 °FPassing clouds.12 mph93%29.47 "HgN/A
6:50 AM34 °FPartly cloudy.13 mph87%29.47 "HgN/A
6:20 AM32 °FPassing clouds.13 mph93%29.50 "HgN/A
5:50 AM32 °FPassing clouds.12 mph93%29.50 "HgN/A
5:20 AM32 °FPassing clouds.10 mph93%29.50 "HgN/A
4:50 AM32 °FPassing clouds.9 mph93%29.53 "HgN/A
4:20 AM32 °FPassing clouds.10 mph93%29.53 "HgN/A
3:50 AM32 °FPassing clouds.8 mph93%29.56 "HgN/A
3:20 AM32 °FPassing clouds.10 mph93%29.56 "HgN/A
2:50 AM34 °FPassing clouds.14 mph87%29.56 "HgN/A
2:20 AM34 °FPassing clouds.15 mph87%29.56 "HgN/A
1:50 AM34 °FPassing clouds.10 mph87%29.56 "HgN/A
1:20 AM36 °FPassing clouds.8 mph87%29.56 "HgN/A
12:50 AM36 °FPassing clouds.15 mph87%29.56 "HgN/A
12:20 AM36 °FPassing clouds.8 mph93%29.56 "HgN/A
11:50 PM
Jan 28
37 °FLight rain. Passing clouds.9 mph87%29.56 "HgN/A
11:20 PM37 °FPassing clouds.8 mph87%29.56 "HgN/A
10:20 PM37 °FLight rain. Partly cloudy.23 mph87%29.56 "HgN/A
9:50 PM37 °FLight rain. Partly cloudy.15 mph100%29.56 "HgN/A
9:20 PM37 °FLight rain. Passing clouds.20 mph100%29.56 "Hg4 mi
8:50 PM37 °FLight rain. Passing clouds.23 mph100%29.53 "HgN/A
8:20 PM39 °FLight rain. Passing clouds.25 mph93%29.56 "Hg5 mi
7:50 PM37 °FFog.22 mph100%29.56 "Hg3 mi
7:20 PM37 °FLight rain. Fog.26 mph93%29.59 "Hg3 mi
6:50 PM37 °FLight rain. Fog.26 mph93%29.59 "Hg3 mi
6:20 PM37 °FLight rain. Fog.24 mph93%29.62 "Hg3 mi
5:50 PM37 °FLight rain. Passing clouds.23 mph93%29.65 "Hg4 mi
5:20 PM37 °FLight rain. Fog.22 mph93%29.68 "Hg3 mi
4:50 PM37 °FPartly sunny.22 mph87%29.71 "HgN/A
4:20 PM37 °FPartly sunny.21 mph87%29.71 "HgN/A
3:50 PM37 °FBroken clouds.18 mph87%29.74 "HgN/A
3:20 PM37 °FBroken clouds.18 mph87%29.80 "Hg6 mi
2:50 PM37 °FPartly sunny.18 mph87%29.83 "HgN/A
2:20 PM36 °FPartly sunny.20 mph93%29.83 "HgN/A
Weather by CustomWeather, © 2014

See weather overviewHow to use our weather pages